Weather History for Fort Lauderdale, FL

Change the Weather History Date:

Wednesday, January 23, 2013

  Actual Average Record
Temperature  
Mean Temperature 68 °F -  
Max Temperature 73 °F 76 °F 85 °F (1953)
Min Temperature 61 °F 58 °F 32 °F (1960)
Cooling Degree Days 2    
Growing Degree Days 18 (Base 50)    
Moisture  
Dew Point 53 °F    
Average Humidity 59    
Maximum Humidity 78    
Minimum Humidity 46    
Precipitation  
Precipitation 0.00 in - - ()
Sea Level Pressure  
Sea Level Pressure 30.26 in    
Wind  
Wind Speed 7 mph (NNE)    
Max Wind Speed 14 mph    
Max Gust Speed 23 mph    
Visibility 10 miles    
Events      
Averages and records for this station are not official NWS values.
T = Trace of Precipitation, MM = Missing Value Source: NWS Daily Summary

Daily Weather History Graph

Daily Weather History Graph

Search for Another Location

Airport:

Trip Planner

Search our weather history database for the weather conditions in past years. The results will help you decide how hot, cold, wet, or windy it might be!

Date:

Astronomy

Jan. 23, 2013 Rise Set
Actual Time 7:08 AM EST 5:57 PM EST
Civil Twilight 6:43 AM EST 6:21 PM EST
Nautical Twilight 6:15 AM EST 6:49 PM EST
Astronomical Twilight 5:48 AM EST 7:17 PM EST
Moon 3:10 PM EST (1/23) 4:14 AM EST (1/23)
Length of Visible Light 11h 37m
Length of Day
10h 48m
Waxing Gibbous, 89% of the Moon is Illuminated
Jan 23
Waxing Gibbous
Jan 26
Full
Feb 3
Last Quarter
Feb 10
New
Feb 17
First Quarter

Hourly Weather History & Observations

Time (EST) Temp. Dew Point Humidity Pressure Visibility Wind Dir Wind Speed Gust Speed Precip Events Conditions
12:53 AM 68.0 °F 51.1 °F 55% 30.22 in 10.0 mi NE 8.1 mph - N/A   Partly Cloudy
1:53 AM 69.8 °F 50.0 °F 49% 30.20 in 10.0 mi NE 8.1 mph - N/A   Clear
2:53 AM 68.0 °F 50.0 °F 52% 30.22 in 10.0 mi NE 6.9 mph - N/A   Clear
3:53 AM 68.0 °F 51.1 °F 55% 30.21 in 10.0 mi ENE 8.1 mph - N/A   Clear
4:53 AM 68.0 °F 52.0 °F 56% 30.21 in 10.0 mi NE 6.9 mph - N/A   Partly Cloudy
5:53 AM 68.0 °F 51.1 °F 55% 30.23 in 10.0 mi NE 6.9 mph - N/A   Clear
6:53 AM 64.4 °F 55.4 °F 73% 30.23 in 10.0 mi NNW 4.6 mph - N/A   Clear
7:53 AM 63.0 °F 54.0 °F 72% 30.27 in 10.0 mi NNW 4.6 mph - N/A   Partly Cloudy
8:53 AM 64.9 °F 54.0 °F 68% 30.29 in 10.0 mi North 4.6 mph - N/A   Mostly Cloudy
9:53 AM 68.0 °F 54.0 °F 61% 30.31 in 10.0 mi North 6.9 mph - N/A   Mostly Cloudy
10:53 AM 69.1 °F 55.0 °F 61% 30.31 in 10.0 mi North 5.8 mph - N/A   Mostly Cloudy
11:53 AM 72.0 °F 54.0 °F 53% 30.28 in 10.0 mi NNE 6.9 mph - N/A   Mostly Cloudy
12:53 PM 73.9 °F 53.1 °F 48% 30.26 in 10.0 mi NE 10.4 mph 23.0 mph N/A   Mostly Cloudy
1:53 PM 73.9 °F 53.1 °F 48% 30.24 in 10.0 mi ENE 13.8 mph - N/A   Scattered Clouds
2:53 PM 73.9 °F 52.0 °F 46% 30.24 in 10.0 mi ENE 11.5 mph 17.3 mph N/A   Scattered Clouds
3:53 PM 73.9 °F 52.0 °F 46% 30.25 in 10.0 mi ENE 12.7 mph - N/A   Scattered Clouds
4:53 PM 72.0 °F 51.1 °F 48% 30.25 in 10.0 mi ENE 11.5 mph - N/A   Partly Cloudy
5:53 PM 69.1 °F 52.0 °F 54% 30.25 in 10.0 mi NE 8.1 mph - N/A   Scattered Clouds
6:53 PM 68.0 °F 51.1 °F 55% 30.26 in 10.0 mi NE 4.6 mph - N/A   Clear
7:53 PM 66.9 °F 51.1 °F 57% 30.27 in 10.0 mi NE 3.5 mph - N/A   Scattered Clouds
8:53 PM 64.9 °F 54.0 °F 68% 30.29 in 10.0 mi Calm Calm - N/A   Scattered Clouds
9:53 PM 64.0 °F 55.9 °F 75% 30.29 in 10.0 mi North 4.6 mph - N/A   Scattered Clouds
10:53 PM 62.1 °F 55.0 °F 78% 30.29 in 10.0 mi NNW 4.6 mph - N/A   Clear
11:53 PM 61.0 °F 54.0 °F 78% 30.27 in 10.0 mi Calm Calm - N/A   Clear